Weather in Fremont

United States     37°32′12″N   121°57′38″W
temp.,
°C
wind,
m/s
gust,
m/s
humid.,
%
clouds,
%
prec.,
mm/h
press.,
hPa
HPBL,
m
25 may, wed
wed2523:00+23ne00275 0.0 100911
02:00+22ese01265 0.0 100811
05:00+20nnw00305 0.0 100811
08:00+24sse00258 0.0 1009116
11:00+31wnw222068 0.0 1009574
14:00+32wnw4322100 0.0 1009708
17:00+31nw442499 0.0 1008796
20:00+25wnw333721 0.0 1009281
26 may, thu
thu2623:00+21ssw12495 0.0 1010242
02:00+19sw12572 0.0 1010273
05:00+17ssw12645 0.0 1010235
08:00+18s245548 0.0 1012453
11:00+24w2335100 0.0 1012837
14:00+26nw4334100 0.0 1011925
17:00+24nw4340100 0.0 1011586
20:00+19wnw3355100 0.0 1013447
27 may, fri
fri2723:00+17wsw12665 0.0 1015358
02:00+15s116978 0.0 1014274
05:00+14s1172100 0.0 1015142
08:00+16ssw0163100 0.0 1016413
11:00+21nw2344100 0.0 1016625
14:00+25nw5631100 0.0 10151019
17:00+23wnw5736100 0.0 1015997
20:00+19wnw365394 0.0 1015635
28 may, sat
sat2823:00+16w24675 0.0 1015453
02:00+15wnw137749 0.0 1014477
05:00+16wsw127792 0.0 1014449
08:00+17sw137056 0.0 1014736
11:00+20wnw3447100 0.0 10141158
14:00+23wnw5642100 0.0 10141531
17:00+20wnw465665 0.0 10131106
20:00+15w46660 0.0 1014656
29 may, sun
sun2923:00+12w25721 0.0 1014511
02:00+11w26711 0.0 1014606
05:00+10wnw257811 0.0 1014473
08:00+12wnw34630 0.0 1015638
11:00+16wnw43390 0.0 10141109
14:00+19wnw66320 0.0 10131313
17:00+17wnw79440 0.0 1012947
20:00+13w59640 0.0 1012727